Regional Weather Roundup
Issued by NWS Green Bay, WI

Home | Current Version | Previous Version | Text Only | Print | Product List | Glossary Off
Versions: 1 2 3 4 5 6 7 8 9 10 11 12 13 14 15 16 17 18 19 20 21 22 23 24 25 26 27 28 29 30 31 32 33 34 35 36 37 38 39 40 41 42 43 44 45 46 47 48 49 50

000
ASUS43 KGRB 230810
RWRGRB

NORTH-CENTRAL AND NORTHEAST WISCONSIN REGIONAL WEATHER ROUNDUP
NATIONAL WEATHER SERVICE GREEN BAY WI
300 AM CDT WED JUL 23 2014

WIZ005-009-010>012-018-019-230900-
NORTH CENTRAL WISCONSIN

CITY           SKY/WX    TMP DP  RH WIND       PRES   REMARKS
IRONWOOD       PTCLDY    54  52  94 CALM      30.15
MANITOWISH WTR CLOUDY    52  52 100 CALM      30.18S
ARBOR VITAE    FOG       52  49  89 CALM      30.18R VSB 3/4
EAGLE RIVER    FOG       50  50 100 CALM      30.17S VSB 1/2
LAND O LAKES   CLEAR     47  47  99 CALM      30.19S FOG
RHINELANDER    CLEAR     55  54  96 CALM      30.18R
PHILLIPS       CLEAR     53  53  99 CALM      30.17S
ANTIGO         CLEAR     53  53  99 CALM      30.17R
TOMAHAWK       CLEAR     49  47  95 CALM      30.18R
MERRILL        CLEAR     52  52  99 CALM      30.17S
$$

WIZ013-073-230900-
NORTHEAST WISCONSIN

CITY           SKY/WX    TMP DP  RH WIND       PRES   REMARKS
IRON MOUNTAIN  PTCLDY    52  50  93 NW5       30.14R
MARINETTE      CLEAR     55  52  88 N3        30.12R
OCONTO         CLEAR     56  54  95 CALM      30.13R
$$

WIZ017-030-035>037-045-230900-
CENTRAL WISCONSIN

CITY           SKY/WX    TMP DP  RH WIND       PRES   REMARKS
MEDFORD          N/A     53  53  98 CALM      30.17S FOG
WAUSAU         CLEAR     59  56  89 N3        30.16R
MOSINEE        CLEAR     59  57  94 N5        30.17S
MARSHFIELD     CLEAR     60  57  89 N3        30.17R
WISC RAPIDS    CLEAR     62  58  86 NE6       30.17R
STEVENS POINT  CLEAR     56  55  97 CALM      30.16S
WAUPACA        CLEAR     60  58  93 N3        30.15R
SHAWANO        CLEAR     61  56  83 N3        30.14S
CLINTONVILLE   PTCLDY    55  54  94 CALM      30.14S
$$

WIZ038-039-048-051-230900-
FOX VALLEY

CITY           SKY/WX    TMP DP  RH WIND       PRES   REMARKS
NWS GREEN BAY  CLEAR     59  56  89 N6        30.13R
APPLETON       PTCLDY    59  54  82 N8        30.14S
OSHKOSH        PTCLDY    63  56  78 N8        30.12S
FOND DU LAC    MOCLDY    65  55  70 NE9       30.12S
$$

WIZ022-050-052-230900-
EAST CENTRAL WISCONSIN

CITY           SKY/WX    TMP DP  RH WIND       PRES   REMARKS
STURGEON BAY   PTCLDY    61  54  77 N14       30.12S
MANITOWOC      CLEAR     60  56  86 N6        30.11S
SHEBOYGAN      CLEAR     57  54  89 N5        30.10F
$$

LMZ563-521-522-541>543-230900-
LAKESHORE

STATION/POSITION TIME  TEMP    WIND        PRES    VSBY  WAVE
                       AIR SEA DIR/SP/G                  HT/PER
                 (UTC) (F)     (DEG/KT/KT) (MB)    (MI)  (FT/S)
SHEBOYGAN LKSHOR 0800   58      10/ 15/ 16 1019.5S
KEWAUNEE LKSHORE 0800   60     310/  2/  3 1020.2R
NORTHPORT PIER   0800   62     360/ 15/ 18 1019.3S
N MID LAKE BUOY  0800   55 51  330/ 12/ 12 1018.4R         2/ 5
CHAMBERS ISLAND  0800   62     340/ 10/ 12 1019.6S
MENOMINEE LKSHOR 0800   58     320/  5/  5 1020.4R
$$



USA.gov is the U.S. government's official web portal to all federal, state and local government web resources and services.